Voltar ao catálogo

STARLINK-11438

AtivoComunicaçõesVLEO
NORAD 62888·PAYLOAD·🇺🇸 United States

Lançado Feb 4, 2025 de Cape Canaveral Space Force Station

Loading…

Próximas Passagens (próximas 24 horas)

TLE

AtualizadoSource: CelesTrak SupGP

Época: Sep 15, 2026, 02:31 UTC

1 62888C 25024K   26258.10534722  .00073424  00000+0  57149-3 0  2588
2 62888  43.0002 119.4253 0001631 263.1358 328.3846 15.70751760    11

Acompanhe STARLINK-11438 em tempo real com AllMySat

Download on the App Store